Theta_e
289 289 289 289 289 289 289 289 289 289 289 289 289 289 289 289 289 289 289 289 289 289 289 289 289 289 289 289 289 289 289 290 290 291 291 292 294 295 297 298 299 299 299 298 298 297 296 296 296 296 295 295 295 295 295 295 295 295 295 294 294 295 296 296 296 296 296 296 297 297 297 297 298 298 298 299 298 298 298 298 298 298 298 298 298
289 289 289 289 289 288 288 288 288 288 288 288 289 289 289 289 289 289 289 289 288 288 288 288 288 288 288 288 288 288 288 288 288 289 289 289 290 291 293 294 296 298 298 298 298 298 296 296 296 296 295 295 295 295 295 295 295 295 295 294 294 294 295 295 296 296 296 296 296 297 297 297 297 298 298 298 298 298 298 298 298 298 298 297 297
289 289 289 289 289 289 289 289 288 289 288 288 288 288 288 288 288 288 288 288 288 288 288 288 288 288 288 288 288 288 288 288 288 288 288 288 288 288 289 290 291 293 295 297 298 298 297 296 296 295 295 295 295 295 294 294 294 294 295 294 294 294 294 294 295 295 296 296 296 296 297 297 297 297 297 298 298 298 298 298 298 298 298 297 297
289 289 289 289 289 289 289 289 289 289 289 289 289 289 289 288 288 288 288 288 288 288 288 288 288 288 288 288 288 288 288 288 288 288 287 287 287 287 287 288 288 289 290 292 294 296 297 297 297 296 294 294 294 294 294 294 294 294 294 294 294 294 293 293 293 294 295 295 296 296 296 297 297 297 297 297 297 297 297 297 297 297 297 297 297
289 289 289 289 289 289 289 289 289 289 289 289 289 288 288 288 288 288 288 288 288 288 288 288 288 288 288 288 288 288 288 288 288 288 288 288 287 287 287 287 287 287 288 288 290 291 294 295 297 296 295 294 294 294 293 293 293 294 294 294 294 294 293 293 293 293 293 294 295 295 296 296 297 297 297 297 297 297 297 297 297 297 297 297 297
290 290 289 289 289 289 289 288 288 288 288 288 288 288 288 288 288 288 287 287 287 287 287 287 287 287 287 287 287 287 287 287 288 288 288 288 288 288 287 287 287 287 287 287 287 288 289 291 293 295 295 295 295 294 293 293 293 293 293 293 293 293 293 293 293 292 292 293 293 294 295 295 296 296 296 297 297 297 297 297 297 297 297 297 297
290 290 290 290 289 289 289 288 288 288 288 288 288 288 288 287 287 287 287 287 287 287 287 287 287 287 287 287 287 287 287 287 287 287 287 287 287 287 287 287 287 287 287 287 287 287 287 288 289 291 292 294 295 295 294 293 292 292 292 292 292 292 292 292 292 292 292 292 292 292 293 294 295 295 296 296 296 296 296 296 296 296 297 297 297
290 290 290 290 289 289 289 289 289 288 288 288 288 288 287 287 287 286 286 286 286 286 286 286 286 286 286 286 286 286 286 287 287 287 287 287 287 287 287 287 287 287 287 287 287 287 287 287 287 288 289 290 292 293 294 294 293 292 292 292 291 291 292 292 292 292 292 292 291 292 292 292 293 294 294 295 295 295 295 295 296 296 296 296 297
290 290 290 289 289 289 288 288 288 288 288 288 287 287 287 287 286 286 286 286 285 285 285 285 285 285 285 285 286 286 286 286 286 286 286 286 286 286 286 287 287 287 287 287 287 287 287 287 287 286 287 287 288 290 291 293 293 293 293 292 291 291 291 291 291 291 291 291 291 291 291 291 292 292 293 294 294 295 295 295 295 295 296 296 296
290 290 289 289 289 288 288 287 287 287 287 287 287 287 286 286 286 286 285 285 285 284 284 284 284 284 284 284 284 285 285 285 285 285 285 285 285 285 285 285 286 286 286 287 287 287 287 287 287 287 286 286 287 287 288 290 292 293 294 292 291 290 290 290 290 290 290 291 291 291 291 291 291 292 292 293 293 294 294 294 295 295 295 295 296
290 290 289 289 288 287 286 286 286 285 285 285 285 285 285 285 285 284 284 284 284 284 284 284 284 284 284 284 284 284 284 284 285 285 285 285 284 284 284 284 284 284 285 285 286 287 287 287 287 287 287 286 286 286 287 287 288 290 292 293 292 291 290 290 290 290 290 290 290 290 290 290 291 291 291 292 292 293 293 294 294 294 294 294 295
289 289 288 287 287 286 285 284 284 284 284 284 283 283 283 283 283 283 283 283 283 283 283 283 283 283 282 282 282 283 283 283 284 284 283 283 283 283 283 283 283 283 283 284 284 285 286 286 287 287 287 287 287 286 286 286 286 287 289 291 292 292 291 291 290 290 289 290 290 290 290 290 290 290 290 291 291 291 292 293 293 293 293 294 295
287 287 286 286 285 284 284 283 283 283 283 282 282 282 282 281 282 282 282 282 282 282 282 282 281 281 281 281 281 281 281 282 282 282 282 282 282 282 282 282 282 282 283 283 283 284 284 285 285 286 286 287 287 287 287 286 286 286 286 288 290 292 292 292 291 290 290 289 289 290 290 290 290 290 290 290 290 290 291 291 292 292 292 293 294
286 286 285 284 284 283 283 283 283 282 282 281 281 281 280 280 280 280 280 280 281 281 281 281 281 281 280 280 280 280 280 281 281 281 281 281 280 281 281 282 282 282 282 282 282 283 283 283 284 285 285 286 286 286 287 286 286 286 286 286 287 289 291 292 292 292 291 290 289 290 290 290 290 290 290 290 290 290 290 290 291 291 292 292 293
284 284 284 283 283 283 282 282 282 281 281 280 280 280 280 280 280 279 279 279 280 280 281 281 281 281 281 280 280 280 280 281 280 280 280 279 279 280 281 281 281 281 281 281 281 282 282 282 283 283 284 284 285 286 286 286 286 286 286 286 286 286 288 290 292 293 292 291 290 290 290 290 289 289 289 289 290 290 290 290 290 290 291 291 292
283 283 283 283 283 282 282 282 281 281 280 280 280 280 280 279 279 279 278 279 279 279 279 279 279 280 280 280 279 279 280 280 280 279 278 278 279 279 280 280 281 281 281 281 281 281 281 282 282 283 283 283 284 285 285 285 286 286 286 286 286 286 286 287 289 291 292 291 291 291 291 290 289 289 289 289 289 289 289 289 289 289 289 290 290
283 283 283 282 282 281 281 281 280 280 280 280 280 280 279 279 279 278 278 278 278 278 278 278 278 278 278 278 278 277 279 279 278 277 276 276 277 278 278 279 280 280 280 281 281 282 282 282 282 283 283 283 283 283 284 284 285 285 286 286 286 286 286 285 286 288 290 291 291 291 292 291 290 289 289 289 289 289 289 288 288 288 288 288 289
282 282 282 282 281 281 280 280 280 280 279 279 279 279 279 279 279 278 277 277 277 277 276 276 276 276 276 276 275 275 276 277 276 275 274 274 275 276 276 277 278 278 279 279 280 280 281 282 282 282 282 282 282 282 283 283 284 284 285 285 286 286 286 286 285 285 288 290 291 292 292 291 291 290 289 289 289 288 288 288 288 288 287 288 288
282 282 282 281 281 280 280 279 279 279 279 279 279 279 278 278 278 277 276 276 275 275 275 274 275 275 273 273 273 272 273 274 274 273 273 272 273 273 274 275 276 276 277 278 278 279 280 280 281 281 282 282 282 282 282 282 283 283 284 285 285 285 286 286 286 285 285 288 290 291 291 291 290 290 289 289 288 288 288 288 288 287 287 287 288
281 281 281 280 280 279 279 279 278 278 278 278 278 278 277 277 276 275 275 274 274 273 273 272 273 273 272 271 271 271 271 272 272 271 271 271 272 272 273 274 274 275 275 276 277 277 278 278 279 280 281 282 282 282 282 282 282 282 283 284 285 285 286 286 286 285 285 286 288 290 290 290 290 289 289 289 288 288 288 288 287 287 287 287 287
281 280 280 280 279 279 278 278 278 278 278 277 277 277 276 275 274 273 273 273 272 272 272 271 271 272 271 270 270 270 269 270 270 269 269 270 271 271 272 272 273 274 274 275 276 276 277 277 278 279 279 280 281 281 282 283 283 283 283 283 284 284 285 286 285 285 285 285 287 289 290 290 289 288 289 289 289 288 288 288 287 287 287 287 287
280 280 280 279 279 278 278 278 278 278 277 277 276 276 274 273 273 272 271 271 271 271 271 270 270 270 270 269 269 269 268 268 268 268 268 268 269 270 271 272 272 273 274 275 275 276 277 277 278 278 279 279 280 281 282 283 284 284 284 283 283 283 285 285 285 285 285 285 287 288 289 289 288 288 288 289 289 289 288 287 287 287 287 287 287
280 279 279 279 278 278 278 278 277 277 276 275 274 274 273 272 272 271 271 270 270 270 270 269 269 268 268 268 267 267 267 267 267 267 267 267 268 269 270 271 271 272 273 273 274 275 276 276 277 278 279 279 280 281 281 282 283 284 285 284 283 283 284 284 285 285 285 286 287 288 288 288 288 288 288 288 289 289 288 287 287 287 287 286 286
279 279 278 278 278 278 277 277 277 276 275 274 273 273 272 271 271 271 270 270 269 269 269 268 267 266 266 266 266 266 266 267 267 267 267 267 268 268 269 270 270 271 271 271 272 273 274 274 275 276 277 278 279 280 281 282 283 283 284 284 284 284 284 285 285 286 286 286 287 287 288 288 288 288 288 288 288 288 288 287 287 287 286 286 286
279 278 278 278 277 277 277 277 276 276 274 273 272 271 271 271 270 270 270 269 269 268 268 267 266 265 265 265 265 266 266 266 266 267 267 267 268 268 269 269 269 270 270 270 271 271 272 273 274 275 276 277 278 279 280 281 282 283 284 284 284 285 285 285 285 286 286 286 286 287 287 288 288 288 288 288 287 287 287 287 287 286 286 286 286
278 278 278 277 277 277 277 277 276 275 274 272 271 271 270 270 269 269 269 269 268 267 267 266 265 264 264 265 265 265 266 266 267 267 267 267 268 268 269 269 270 270 270 270 271 271 271 272 273 274 274 275 277 278 278 280 281 282 283 284 284 285 285 286 286 286 286 286 286 286 286 286 288 288 287 286 286 286 287 287 286 286 286 286 286
278 277 277 277 277 277 277 276 275 274 273 271 271 270 270 269 269 269 269 268 267 266 265 265 264 265 265 265 266 266 267 267 267 267 267 268 268 269 270 270 270 271 271 271 271 271 271 272 272 273 273 274 275 276 277 278 280 280 281 282 283 284 284 285 286 286 286 286 285 285 285 286 287 287 287 286 286 286 286 286 286 286 285 285 285
277 277 277 277 277 277 276 275 274 273 272 271 270 270 270 270 269 269 269 267 265 265 264 264 265 265 266 266 267 267 267 267 267 267 268 268 269 270 270 270 271 271 271 271 271 272 272 272 272 273 273 274 274 275 276 277 279 281 281 281 283 284 284 285 286 286 285 285 285 285 285 286 287 287 286 286 286 286 286 285 285 285 285 285 285
277 277 276 277 276 276 275 274 274 272 271 270 270 270 270 270 268 268 268 267 265 264 265 265 266 266 266 267 267 267 267 268 268 268 269 270 270 271 271 271 271 271 272 272 272 273 273 273 273 273 273 274 274 275 275 276 278 281 282 282 283 284 284 284 285 285 285 285 285 285 286 286 287 287 286 286 286 285 285 285 285 284 284 284 284
276 276 276 276 276 275 274 274 273 272 270 270 270 270 271 271 269 266 266 267 266 265 265 266 266 267 267 267 267 268 268 268 269 269 270 270 270 271 271 271 272 272 272 273 273 273 273 273 273 273 273 274 274 274 275 276 277 279 281 282 283 283 283 283 284 284 285 284 285 285 286 286 286 286 286 286 285 285 285 284 284 284 284 283 283
276 276 276 276 275 274 274 273 272 271 269 269 269 268 269 271 271 269 267 267 267 267 266 266 267 267 268 268 268 268 268 268 269 269 270 270 271 271 271 272 272 272 273 273 273 273 273 273 273 273 273 273 274 274 275 275 276 277 279 281 282 282 282 283 284 284 284 284 284 285 285 286 286 286 286 286 285 285 284 284 284 283 283 283 283
275 275 275 275 274 274 273 273 272 270 269 269 269 268 267 268 270 272 271 270 269 268 268 267 267 267 267 268 268 268 268 268 269 270 270 271 271 271 271 272 272 272 273 273 273 273 273 273 273 273 273 273 273 274 274 275 275 276 276 278 281 282 282 283 283 284 284 284 284 285 285 285 286 286 286 285 285 284 284 283 283 283 283 282 282
275 275 274 274 274 273 273 272 271 269 268 268 268 268 267 265 266 269 271 272 272 271 270 269 268 267 267 268 268 268 269 269 269 270 271 271 271 271 271 272 272 272 273 273 272 272 272 272 273 273 273 273 273 273 274 274 275 275 275 277 279 281 282 282 282 283 284 283 284 284 284 285 285 286 285 285 284 284 284 283 283 283 282 282 281
274 274 273 273 273 273 273 272 270 269 269 269 268 268 267 266 265 265 266 269 271 272 273 272 271 269 268 268 268 268 269 269 269 270 270 271 271 271 271 272 272 272 273 273 272 273 273 273 273 273 273 273 273 273 273 274 274 275 275 276 277 279 281 282 282 282 283 283 283 284 284 284 285 285 285 284 284 283 283 283 283 282 282 281 281
274 274 274 273 273 273 272 272 270 269 269 269 269 268 268 267 267 266 265 265 266 268 271 272 273 272 270 269 269 269 269 269 269 269 270 271 271 271 271 271 271 272 273 273 273 273 273 273 273 273 274 274 274 274 274 274 274 275 276 276 277 278 280 281 281 282 282 282 283 283 284 284 284 285 285 284 284 283 283 282 282 282 282 281 281
274 274 274 273 273 273 272 272 270 269 269 269 269 268 268 267 267 266 265 265 264 265 267 268 270 271 271 270 269 269 269 270 270 270 270 270 271 271 270 270 271 271 272 272 273 273 273 273 273 274 274 275 275 275 274 274 274 275 276 276 277 278 279 281 281 281 282 282 282 282 283 283 284 284 284 284 283 283 283 283 282 282 281 281 280
273 273 273 273 273 273 273 272 270 269 269 269 269 268 268 268 267 267 266 265 265 265 266 266 267 268 270 270 270 270 270 270 271 271 271 271 271 270 270 270 270 270 271 272 272 272 273 273 274 274 275 275 275 275 275 275 275 275 275 276 277 278 279 281 282 281 281 282 282 282 282 282 283 284 284 283 283 283 282 282 281 281 280 280 280
273 273 272 272 273 273 272 271 271 270 270 270 269 269 268 268 268 267 267 266 266 266 266 266 266 266 267 269 269 269 269 269 270 271 271 272 271 270 270 270 270 270 270 271 271 272 272 273 274 274 275 275 276 276 276 276 275 275 275 276 277 278 279 281 281 281 281 281 282 282 282 282 283 283 283 283 283 282 282 281 281 280 280 279 279
273 272 272 272 272 272 271 271 270 270 270 270 269 269 269 269 269 268 267 267 267 266 266 266 266 266 267 267 268 268 268 268 269 269 270 271 271 270 270 269 269 270 270 271 272 272 273 274 274 274 275 276 276 277 277 277 276 276 276 277 277 278 279 280 281 281 280 280 281 281 282 282 283 283 283 283 282 282 282 281 280 280 280 279 279
272 272 272 272 272 272 271 270 270 270 270 270 270 270 270 269 269 268 268 268 267 267 266 265 266 267 267 267 267 267 267 268 268 269 270 271 271 271 271 270 270 271 272 272 273 273 273 274 275 275 276 277 277 277 278 278 277 277 277 277 278 279 280 281 281 281 280 280 281 281 282 282 282 282 282 282 282 282 282 281 280 280 280 279 279
272 272 272 272 272 271 271 270 270 270 270 270 270 270 270 270 269 269 268 268 267 267 266 266 266 267 268 268 267 267 267 268 269 270 270 271 271 272 272 272 272 272 272 272 273 273 273 274 276 276 278 279 280 279 279 279 279 278 279 279 280 280 281 281 281 280 280 281 282 282 282 282 282 282 282 282 281 281 281 280 280 279 279 278 278
271 271 272 272 271 271 271 270 271 271 271 271 271 271 270 270 270 269 268 268 267 267 267 267 267 268 269 269 269 269 269 270 270 271 272 272 272 272 272 273 272 272 272 272 273 273 274 275 276 277 278 279 280 280 280 280 280 280 280 281 281 281 281 281 281 281 281 281 282 282 282 282 282 282 282 281 281 280 280 279 279 279 278 277 277
270 271 271 271 271 271 271 271 271 271 271 271 271 271 271 270 270 269 269 268 267 267 267 267 268 269 270 270 270 271 271 271 271 272 272 273 273 273 273 273 273 273 273 273 273 273 275 276 277 277 278 279 280 280 280 280 281 281 281 281 281 281 281 281 281 281 282 282 282 281 281 281 281 281 280 280 280 279 279 278 278 278 277 277 276
270 271 271 271 270 270 271 271 271 271 272 272 272 271 271 270 270 269 269 268 268 267 267 267 268 269 270 271 271 271 272 272 272 272 272 273 273 273 273 273 273 273 274 274 273 274 275 277 277 278 279 279 280 280 281 281 281 281 281 281 281 281 281 281 281 281 282 282 281 281 281 281 280 280 279 279 279 278 278 277 277 277 276 276 275
270 270 270 270 270 270 271 271 271 271 272 272 272 271 271 270 270 269 269 268 268 268 268 267 268 269 270 270 270 271 271 271 272 272 272 272 272 273 273 273 273 273 274 274 274 274 275 276 277 277 278 279 279 279 280 280 281 281 281 281 281 281 281 281 281 281 281 281 281 281 280 280 279 279 279 278 278 278 277 277 276 276 276 275 275
269 270 270 270 270 270 270 271 271 271 271 271 271 271 271 270 270 269 269 269 268 268 268 268 268 269 269 269 270 270 270 270 271 271 271 272 272 272 272 273 273 273 273 273 273 273 274 274 275 276 277 277 277 278 278 279 279 279 279 279 279 279 280 280 280 280 280 280 280 280 280 279 278 278 278 277 277 276 276 276 276 275 275 275 274
269 269 270 270 270 270 270 270 271 271 271 271 271 271 271 270 270 270 269 269 269 268 268 268 269 269 269 269 269 269 269 270 270 270 270 271 271 271 272 272 273 273 273 273 273 273 273 273 273 274 274 275 275 276 276 277 277 277 278 278 278 278 278 278 278 278 278 278 278 278 278 278 277 277 276 276 276 275 275 275 275 274 274 274 274
268 269 269 269 270 270 270 270 270 270 271 270 270 270 270 270 270 270 269 269 269 268 268 268 268 269 269 269 269 269 269 269 269 269 270 270 270 270 271 271 272 272 273 273 273 273 273 273 273 273 273 274 274 274 274 275 276 276 277 277 277 277 277 277 277 277 277 276 276 276 276 276 276 276 275 275 275 274 274 274 274 273 273 273 273
268 268 269 269 269 269 269 269 270 270 270 270 270 270 270 270 269 269 269 269 268 268 268 268 268 268 269 269 269 269 269 269 269 269 269 269 269 270 270 270 271 271 272 272 273 273 273 272 272 272 273 273 273 273 274 274 274 275 275 276 276 276 276 275 275 275 275 275 275 275 275 274 274 274 274 274 273 273 273 273 273 273 273 273 272
268 268 268 268 269 269 269 269 269 269 269 269 269 269 269 269 269 269 269 269 268 268 268 268 268 268 268 269 269 269 269 269 269 269 269 269 269 270 270 270 270 270 271 271 272 272 272 272 272 272 272 272 273 273 273 274 274 274 274 274 274 274 274 274 274 274 274 274 274 273 273 273 273 273 273 273 272 272 272 272 272 272 272 272 272
267 267 268 268 268 268 268 268 268 268 268 269 269 269 269 269 269 268 268 268 268 268 268 268 268 268 268 268 268 268 268 268 269 269 269 269 270 270 270 270 270 270 270 271 271 271 271 272 272 272 272 272 272 272 272 272 273 273 273 273 273 273 273 273 273 273 273 273 273 272 272 272 272 272 272 272 272 272 272 272 272 272 272 272 272
Wind_Speed
17 17 17 17 17 16 16 15 15 14 14 14 14 13 14 14 14 15 16 17 19 20 21 23 24 24 24 23 23 23 23 23 23 23 23 23 22 22 23 23 24 24 24 24 23 24 26 28 30 30 29 31 34 36 38 40 42 45 46 48 49 48 46 48 52 55 52 50 50 49 46 44 43 43 41 39 38 37 37 36 35 35 35 35 35
17 17 18 19 20 20 21 21 22 22 22 22 22 21 21 20 20 19 18 18 19 20 22 23 24 25 26 26 26 25 25 25 24 25 25 26 26 25 24 25 26 26 26 26 24 24 25 27 29 29 29 31 32 33 35 37 38 42 44 46 49 50 48 48 50 52 52 51 50 50 49 48 47 46 43 42 41 40 39 39 38 37 37 37 37
20 20 20 20 20 21 21 22 23 24 25 26 26 27 27 28 27 27 26 24 23 23 24 25 25 25 26 26 27 27 28 28 28 27 27 27 28 28 27 27 27 27 28 28 27 26 26 28 28 28 28 30 32 32 32 34 36 39 41 44 46 49 49 49 50 51 52 50 50 50 51 51 51 49 47 45 43 42 42 41 40 39 39 39 39
22 23 23 23 23 23 23 24 24 25 26 27 28 28 29 30 31 31 31 31 30 29 29 29 29 28 27 26 26 27 28 30 31 31 30 30 30 30 29 29 29 29 29 29 29 28 28 29 29 28 28 30 31 31 31 32 34 36 38 40 43 46 47 48 51 52 52 51 49 49 50 51 52 51 49 47 46 45 44 43 42 42 41 40 40
22 22 23 24 24 25 26 26 26 27 28 28 29 30 31 31 32 32 33 33 33 33 33 33 34 33 33 31 30 29 29 29 30 32 32 32 33 33 32 31 31 31 31 31 30 30 30 30 30 29 29 31 32 32 31 32 33 34 36 38 39 42 43 45 49 51 53 53 52 49 47 48 50 51 50 49 48 47 46 45 45 44 43 42 42
22 23 24 25 26 27 28 29 29 30 31 31 32 32 33 33 33 33 33 34 34 34 35 35 36 37 37 37 36 35 34 33 32 32 32 33 35 36 36 35 34 33 33 33 32 31 31 31 31 30 30 31 33 33 33 33 33 34 36 36 37 38 40 42 45 47 51 54 54 52 51 49 49 50 51 50 50 50 49 49 48 47 46 45 44
25 26 27 28 29 30 31 32 33 34 35 36 36 36 36 36 36 36 36 36 36 36 36 37 37 38 39 39 39 39 39 39 38 37 35 35 35 37 38 38 38 37 36 35 34 33 33 32 32 31 31 31 31 32 33 34 35 35 36 36 35 36 38 40 42 44 48 51 53 54 55 54 52 52 52 51 51 51 52 52 53 51 50 48 47
25 27 29 30 31 31 32 34 35 36 38 39 39 40 40 40 40 40 40 41 41 41 41 42 41 41 41 41 41 41 41 42 43 42 41 40 39 38 39 39 40 41 40 39 37 36 35 34 33 32 32 32 31 30 30 31 34 36 37 36 35 36 38 40 41 43 45 48 50 52 53 54 55 54 54 53 54 56 56 55 55 55 53 52 50
22 23 25 27 29 31 33 35 36 37 38 39 39 40 41 42 42 43 44 45 46 46 47 47 48 48 47 46 46 45 45 45 44 44 45 45 44 43 42 42 42 42 43 43 42 40 39 37 36 35 33 32 32 31 30 29 30 34 36 36 36 37 38 40 41 43 44 46 48 49 50 52 55 56 57 58 61 62 60 57 57 56 55 53 51
21 22 24 25 27 30 33 34 35 37 38 38 39 40 41 43 44 46 47 48 49 50 50 51 51 52 52 52 52 51 51 50 48 47 47 47 48 48 47 46 45 45 45 45 44 44 43 42 40 38 36 35 33 32 32 30 29 30 33 34 36 38 39 41 42 43 44 46 48 48 48 52 55 57 59 61 62 61 60 60 60 58 55 54 54
23 23 25 26 29 31 33 34 35 36 37 39 40 42 43 45 47 48 49 50 51 52 52 53 54 54 55 55 55 55 55 55 54 53 51 50 50 50 51 50 49 48 47 47 47 46 45 45 44 43 41 39 37 34 33 32 31 30 30 31 34 37 40 42 44 44 44 46 48 48 48 52 56 55 56 58 58 59 61 62 62 60 58 58 58
24 26 28 30 32 33 34 35 36 38 39 40 42 43 45 47 48 50 51 52 52 53 54 54 55 55 55 56 57 57 57 58 57 56 55 54 53 52 52 52 51 51 50 50 50 49 48 47 47 46 45 43 41 39 37 34 33 32 32 31 31 34 38 42 44 45 45 46 48 49 50 53 55 53 53 55 56 57 59 60 62 62 63 63 63
27 30 31 32 33 34 36 38 40 42 42 43 44 45 46 47 48 49 51 52 53 54 55 55 55 55 55 55 56 56 58 59 59 58 57 56 55 54 52 52 52 52 52 51 51 52 51 50 49 48 47 46 44 43 42 40 37 35 34 33 32 33 35 39 43 46 47 48 50 52 54 54 53 52 52 52 53 55 57 60 62 63 63 64 65
30 31 32 33 34 37 39 41 43 44 45 45 45 46 47 47 48 48 49 50 52 53 54 55 56 56 56 56 56 57 58 59 59 58 57 57 56 53 50 50 50 51 52 53 53 53 53 53 52 51 50 48 47 45 44 43 42 39 37 36 35 34 34 36 39 42 46 48 51 55 57 54 52 51 49 49 51 54 57 59 61 62 62 64 64
31 32 33 35 38 40 42 44 45 46 46 46 47 48 48 48 48 48 48 49 51 52 53 55 56 56 57 57 57 59 59 59 59 58 57 55 52 48 47 47 48 50 52 53 53 53 53 53 53 53 53 51 49 47 46 44 44 43 41 39 38 37 36 36 37 38 42 46 50 55 57 55 53 51 49 49 51 53 53 54 55 58 59 61 62
32 35 37 39 41 43 44 45 46 47 47 48 48 48 48 48 49 49 50 51 52 53 54 55 56 57 58 58 59 60 61 60 59 57 56 52 47 45 45 46 47 48 50 51 52 52 53 52 52 53 54 53 52 51 48 46 44 44 43 42 41 39 39 38 37 37 39 42 45 50 54 55 54 52 51 51 52 52 49 47 48 52 56 58 61
36 39 41 42 43 44 45 45 46 47 47 47 48 49 49 50 51 51 52 54 55 55 55 56 57 57 58 59 58 59 61 61 59 56 54 49 44 43 44 45 46 47 48 50 50 50 51 51 51 52 53 53 54 53 50 47 46 45 45 44 43 42 41 40 38 37 37 38 41 44 47 50 51 51 51 52 53 51 47 46 49 52 55 57 59
39 41 42 43 44 44 44 44 45 46 46 47 49 50 51 52 53 53 53 54 56 56 55 55 57 56 55 55 54 54 57 59 56 54 51 46 41 42 44 45 47 49 50 51 51 50 50 50 50 52 53 54 55 54 51 48 47 46 46 46 45 45 44 41 39 38 37 37 39 41 43 45 47 47 48 50 53 53 51 52 53 52 53 57 59
41 42 43 44 44 43 43 43 43 45 46 48 49 51 52 53 54 53 53 53 53 54 52 51 54 53 49 48 48 47 50 52 50 48 47 44 40 40 41 43 46 49 50 51 52 52 52 52 52 52 52 53 53 54 52 49 48 47 47 47 47 47 45 42 40 38 38 38 39 40 41 43 44 45 46 48 50 52 54 56 55 52 54 58 58
41 42 43 43 42 42 41 42 43 45 47 49 50 51 52 52 52 51 50 49 49 49 48 47 49 49 45 43 43 41 42 44 43 40 39 38 35 34 36 39 43 47 49 50 52 54 54 53 53 51 48 47 48 50 50 49 47 47 47 48 50 49 46 44 41 39 39 39 39 40 40 41 42 43 44 46 48 50 53 55 55 54 56 58 57
41 42 42 41 41 41 41 43 45 46 47 49 50 50 50 49 48 47 46 46 45 45 45 44 45 46 43 40 40 39 38 39 39 36 34 33 32 31 33 36 38 41 45 47 50 53 54 55 55 53 50 48 47 47 47 46 45 46 47 49 49 47 46 44 42 40 39 39 40 40 40 41 42 42 43 45 48 51 53 54 55 55 57 57 56
41 41 41 40 40 41 42 44 45 46 47 47 48 49 47 45 44 42 42 43 43 43 44 43 44 45 43 41 40 39 37 37 37 36 33 32 31 30 31 33 34 36 40 45 47 49 50 51 51 50 48 47 46 45 44 44 44 45 47 48 48 46 45 44 43 41 41 40 41 41 41 41 42 43 43 44 47 50 52 54 54 55 56 57 57
41 40 40 40 41 42 43 44 44 45 46 45 45 46 44 42 40 40 39 41 42 43 43 43 44 45 45 43 41 40 38 36 36 35 34 32 31 30 31 32 33 33 37 43 46 46 47 47 47 45 43 43 44 45 45 45 45 45 46 46 47 47 45 44 44 43 42 41 41 41 42 43 43 44 44 44 44 47 50 52 53 53 54 55 56
40 39 39 41 42 42 43 43 43 43 43 43 43 42 41 39 39 38 38 39 42 44 44 43 44 45 46 45 43 40 39 38 37 36 35 34 33 33 33 33 33 33 35 40 44 46 46 46 47 46 45 44 43 43 45 45 46 46 46 45 45 45 45 45 45 44 42 42 42 42 42 43 44 44 44 43 43 44 46 49 51 52 52 53 54
39 39 40 41 41 42 42 42 42 42 41 40 39 39 38 38 38 38 38 39 41 43 43 43 43 44 45 45 44 42 41 41 41 40 39 39 38 36 34 34 33 33 35 38 42 44 45 44 44 44 45 45 45 45 47 47 46 44 44 45 44 44 45 45 44 44 43 42 43 44 43 43 44 44 44 42 41 41 43 46 50 52 52 52 52
38 39 40 40 41 41 42 42 41 41 39 36 35 35 36 37 38 38 38 38 39 40 41 41 42 43 44 45 46 45 45 44 44 43 42 42 41 38 36 36 36 35 37 39 40 40 41 42 42 42 41 41 42 44 47 49 50 47 44 43 44 44 45 46 45 44 44 44 43 44 44 43 43 43 42 41 41 41 42 44 47 50 52 52 52
38 39 39 40 40 40 41 41 41 40 37 34 33 34 34 35 37 37 37 38 38 39 40 40 42 44 45 46 47 47 46 45 44 43 42 42 42 41 40 40 39 38 39 41 42 41 40 40 41 42 43 44 44 43 41 42 47 51 49 45 45 45 46 46 45 45 45 45 44 44 44 43 43 42 41 41 41 41 42 43 45 47 50 51 50
37 37 38 38 39 39 39 40 39 38 36 34 34 34 34 34 36 36 36 37 38 39 40 41 42 43 44 46 47 47 46 44 43 42 41 41 42 42 41 40 39 39 40 42 43 43 43 41 41 41 43 44 44 43 41 38 38 45 50 48 47 46 45 44 45 45 44 44 44 43 42 42 43 43 42 42 41 41 41 42 43 45 47 48 48
35 36 36 37 38 38 38 38 37 36 35 35 34 33 33 34 36 37 35 35 35 36 37 39 41 41 42 43 44 46 46 45 42 40 38 38 38 38 38 38 38 38 39 39 40 42 43 42 42 41 41 41 40 41 42 39 35 35 41 45 45 43 42 43 44 45 45 44 43 43 42 42 43 43 42 42 41 41 41 41 42 43 44 46 47
35 35 35 36 37 37 38 37 36 35 34 35 36 35 32 31 33 35 36 34 32 32 33 36 37 37 38 40 39 40 42 43 40 38 36 35 35 35 35 36 36 36 37 36 37 40 41 41 42 41 41 41 40 39 39 38 37 34 34 38 42 41 41 43 45 45 44 44 43 43 42 42 42 42 42 42 41 40 40 41 41 42 43 45 45
34 34 34 35 35 36 37 36 35 34 34 35 37 38 37 33 30 30 32 34 33 31 31 32 33 32 33 35 35 36 37 37 37 36 35 34 34 35 35 35 35 35 35 35 37 39 40 41 42 42 41 41 40 38 37 37 38 37 34 33 37 40 41 42 43 44 43 43 43 43 42 42 42 42 42 42 41 41 40 40 40 42 43 44 44
32 33 33 34 34 35 35 35 34 34 35 35 36 37 39 38 35 31 29 30 33 33 32 31 30 30 30 32 33 34 35 35 36 36 34 33 33 33 32 32 32 32 32 33 36 38 38 39 40 40 41 42 40 39 37 36 37 39 37 35 33 35 37 39 40 41 41 40 41 41 41 41 41 42 42 41 41 41 41 40 41 42 43 43 43
30 31 33 33 33 34 34 33 33 33 34 35 36 36 36 38 39 38 34 31 31 30 29 29 30 31 31 31 32 33 32 32 33 33 31 30 31 31 30 31 32 33 32 34 36 36 36 37 39 39 41 42 42 40 38 36 37 39 40 39 35 32 33 34 35 36 37 38 38 39 40 40 40 41 41 41 41 41 41 41 41 42 42 42 42
28 30 31 32 32 33 32 32 32 32 32 33 34 34 35 35 37 39 39 38 35 31 26 24 25 28 32 32 31 31 30 29 30 30 29 28 29 29 31 32 31 30 29 30 33 35 36 37 38 39 40 42 42 40 38 36 36 37 38 38 36 32 30 30 30 32 35 36 35 36 38 38 39 40 40 40 40 40 41 41 41 42 43 43 42
27 28 29 30 31 31 31 31 30 31 32 32 32 33 34 34 35 36 37 39 39 38 34 29 26 27 30 31 31 30 29 28 29 29 28 27 26 27 30 32 30 29 28 29 32 35 37 38 39 40 41 41 41 40 38 36 35 34 34 35 36 33 30 29 28 29 32 34 34 35 36 37 38 39 40 40 40 40 41 41 42 42 43 43 43
27 27 28 29 30 30 30 30 29 30 31 32 32 32 33 34 34 35 36 36 37 39 39 37 34 31 30 29 30 29 28 26 27 28 28 29 28 29 31 33 33 33 33 33 34 36 38 39 40 40 41 42 41 40 38 35 34 32 32 33 35 34 32 31 30 29 30 32 33 33 34 36 37 39 39 40 41 41 42 42 42 42 42 42 42
26 27 28 29 29 29 28 28 28 29 30 30 31 32 33 33 34 34 35 36 37 37 38 38 38 36 33 30 29 28 27 26 25 26 26 28 29 29 31 32 33 34 35 35 36 38 40 40 41 41 42 43 42 40 37 34 32 32 31 32 33 32 31 31 30 27 28 30 31 32 33 34 37 39 39 40 40 41 41 41 42 41 41 41 41
25 26 27 28 28 27 27 26 27 27 28 29 30 31 32 33 33 33 34 35 35 36 37 37 37 38 37 35 32 30 31 32 33 31 29 28 29 30 31 31 33 34 35 37 38 39 40 41 41 41 39 38 38 37 34 31 29 29 29 30 31 31 31 30 29 27 27 29 31 32 32 34 36 38 39 39 40 40 40 41 41 40 39 39 39
24 25 26 26 26 25 25 26 26 27 28 29 30 31 31 32 32 32 32 33 34 34 35 35 36 36 37 36 34 34 36 37 36 35 34 32 31 31 31 31 32 33 34 35 35 35 36 38 38 37 36 34 34 35 33 29 27 28 29 30 31 32 32 32 31 29 27 29 30 31 33 35 37 38 38 38 39 39 40 40 40 40 39 39 39
23 25 25 25 25 24 24 25 26 27 28 29 30 30 31 31 31 31 31 31 32 32 32 33 34 34 34 33 33 33 34 33 32 31 31 31 31 31 30 30 31 31 30 31 32 34 36 37 36 34 31 27 26 28 28 25 25 26 26 27 30 34 35 32 29 26 26 28 31 33 35 37 37 36 37 37 38 38 39 39 39 39 39 39 39
23 24 25 24 24 24 24 25 26 26 28 29 30 30 30 30 30 30 29 29 30 30 30 31 32 32 31 30 29 28 28 28 28 28 28 28 28 29 30 30 30 30 29 30 32 33 35 35 32 29 27 22 18 19 20 19 19 21 25 27 30 32 31 26 22 22 23 27 32 35 36 36 35 34 35 36 36 37 38 37 37 37 38 38 37
22 23 24 24 23 24 25 26 27 27 28 29 29 30 30 30 29 28 28 27 28 28 29 30 31 31 29 28 27 26 26 26 26 26 26 26 26 28 28 29 30 29 29 30 30 31 32 32 30 27 24 20 16 15 17 18 18 19 21 22 22 22 22 20 19 19 22 27 32 35 35 34 33 33 33 34 35 36 37 36 36 36 36 36 36
22 22 23 23 23 24 25 26 27 28 28 29 29 28 28 28 27 26 26 26 26 26 28 29 30 29 28 27 26 25 25 25 25 25 24 25 25 26 26 27 27 28 28 28 27 27 28 28 28 27 24 19 15 12 12 15 17 15 14 15 15 15 17 19 19 19 22 28 31 32 32 32 32 32 33 34 34 34 35 35 34 34 34 35 34
21 22 22 22 23 23 24 25 26 27 27 27 26 26 25 25 25 24 24 25 25 26 27 28 29 28 27 26 26 26 26 26 25 25 25 25 24 24 24 25 25 26 25 25 25 25 24 23 23 23 22 19 16 12 8 8 10 11 12 14 15 15 16 16 18 20 23 27 28 29 29 30 30 31 31 32 32 32 33 33 33 33 33 33 32
20 21 22 22 23 23 24 24 25 25 25 24 24 23 23 23 23 23 24 24 25 26 27 27 27 28 28 28 29 29 28 28 28 27 26 25 24 23 24 24 24 24 23 22 22 23 22 21 20 18 17 16 15 13 10 9 9 11 13 14 15 15 15 16 19 21 23 24 25 25 26 27 28 29 29 29 30 30 31 31 31 31 31 31 31
19 20 22 22 22 23 23 23 23 22 22 22 22 22 22 22 22 23 23 25 26 27 28 28 28 29 30 30 31 32 32 32 31 30 29 27 26 25 24 23 23 23 22 21 20 19 19 19 18 18 17 16 15 14 13 12 11 10 10 10 10 11 12 14 16 17 18 20 20 21 23 24 25 26 26 27 27 28 28 28 29 29 29 29 30
19 20 20 21 21 21 21 21 21 20 20 20 21 21 21 22 22 23 24 25 26 27 28 28 29 29 30 31 31 32 33 33 33 33 33 32 30 29 27 26 24 23 22 21 20 19 18 17 17 17 17 16 15 14 14 13 13 12 11 9 8 8 8 9 10 11 12 14 15 17 18 20 22 23 23 24 25 25 25 26 26 26 27 27 28
18 18 19 19 19 19 19 19 19 19 19 19 20 20 21 21 22 22 23 24 25 26 27 27 28 29 29 30 30 31 32 32 32 33 33 33 33 32 31 30 29 27 26 24 22 21 20 20 19 18 16 16 15 15 14 14 13 12 11 10 8 7 5 4 4 4 5 7 9 12 14 16 18 20 21 21 22 23 23 24 25 25 25 26 27
16 17 17 18 17 17 17 18 17 17 18 18 19 19 20 20 21 22 22 23 24 25 26 26 27 27 28 28 29 29 30 31 31 32 32 32 33 33 32 32 32 31 30 29 27 25 24 23 23 21 19 18 17 16 15 14 14 12 11 10 8 6 5 5 4 3 2 2 5 8 11 13 15 17 19 19 20 21 22 23 23 24 25 26 26
15 15 15 16 16 16 16 16 16 16 16 17 18 18 19 19 20 20 21 22 23 24 24 25 26 27 28 28 28 29 29 30 30 31 31 31 31 31 31 32 32 31 31 30 29 28 27 27 26 26 25 23 22 20 18 17 16 14 12 10 9 8 7 7 7 5 3 1 3 6 9 11 14 16 17 18 19 20 20 21 22 23 23 24 25
13 13 14 14 14 15 15 15 15 16 16 16 17 17 17 18 18 19 20 21 22 23 23 24 25 26 26 27 28 28 29 29 30 30 30 30 31 31 31 31 31 31 30 30 29 29 29 29 29 29 29 29 28 28 27 25 23 20 18 16 14 13 12 11 9 8 6 4 3 5 8 10 12 14 16 17 17 18 19 20 20 20 20 21 22
Wind_Direction
18 15 12 9 6 4 0 357 354 349 346 343 339 338 337 337 338 336 336 334 331 329 327 326 326 327 329 331 333 333 332 330 330 328 326 324 321 318 315 309 301 295 289 283 278 274 271 269 267 265 264 263 261 260 259 258 258 257 257 257 255 253 253 253 253 255 256 256 257 258 257 256 255 253 251 248 245 243 242 240 238 238 239 240 241
7 4 1 359 357 355 353 351 348 346 343 340 338 338 337 337 336 333 332 329 327 326 325 323 323 323 324 325 327 328 328 328 328 327 325 324 322 320 317 314 310 306 301 296 290 282 276 273 270 268 267 265 264 263 262 261 259 257 256 256 257 255 253 252 254 255 255 254 254 255 255 254 253 252 249 248 247 246 244 242 239 239 238 238 239
359 357 355 353 350 349 346 344 342 341 340 338 337 337 336 336 335 332 330 327 324 322 321 320 319 318 319 319 320 321 322 323 323 323 322 321 320 319 318 315 312 310 307 305 302 296 287 280 275 273 271 269 266 265 264 264 262 260 258 256 257 256 254 253 253 254 255 254 253 252 253 253 253 252 251 250 249 247 246 245 243 242 240 238 237
352 351 348 346 346 344 341 339 337 336 335 334 334 333 333 333 332 331 329 327 325 323 321 319 318 316 315 314 314 314 315 316 316 317 317 317 316 315 314 313 311 310 308 306 305 303 298 292 285 280 277 273 271 268 266 264 263 262 261 259 258 257 257 255 253 253 255 255 254 252 251 252 253 253 252 249 247 246 245 244 243 242 241 239 238
342 341 339 338 338 338 337 335 333 332 331 330 329 328 328 327 327 326 325 324 323 322 321 319 318 317 316 315 313 311 310 308 308 308 310 311 311 310 310 309 308 307 307 305 304 303 301 299 296 291 283 277 275 272 270 267 265 263 262 262 261 260 259 258 255 254 254 255 255 253 251 250 250 250 249 247 245 244 243 242 242 241 240 238 237
330 330 330 329 329 330 331 330 329 328 327 326 325 324 324 323 322 321 320 319 318 318 318 317 317 316 316 316 315 313 311 308 305 303 302 303 304 304 305 305 304 303 302 303 303 302 300 298 298 297 291 285 280 277 274 272 269 267 265 263 264 264 263 260 258 256 255 254 254 254 252 249 247 247 247 246 245 244 243 241 240 238 237 236 235
322 323 323 322 322 323 324 325 325 325 324 323 323 322 322 321 320 319 318 317 316 316 315 314 314 314 313 313 313 312 311 309 307 305 302 300 298 298 299 300 300 300 299 298 298 298 298 297 296 295 294 292 289 284 278 275 272 270 268 267 267 266 265 263 261 258 256 255 254 253 252 251 249 248 248 248 247 245 243 241 239 237 236 235 234
315 316 316 316 316 317 318 319 320 320 320 320 320 320 319 319 319 319 318 317 317 316 315 315 313 312 311 310 309 309 307 306 306 305 304 302 299 297 295 294 295 295 296 295 295 294 293 294 294 293 292 292 292 290 285 279 275 272 269 268 268 267 265 264 262 260 257 255 254 252 252 251 249 248 246 244 243 242 240 238 239 239 238 236 236
304 304 305 306 308 310 313 315 315 315 315 314 315 315 315 316 316 316 316 316 316 315 315 314 313 312 311 309 307 306 304 302 302 302 302 302 300 298 296 293 292 291 291 292 292 291 290 290 290 290 290 290 289 290 288 284 278 274 271 268 266 265 264 263 261 259 256 255 253 251 250 249 248 246 243 241 241 242 241 239 239 239 238 238 238
293 293 295 297 300 302 305 309 311 311 311 312 312 312 313 313 313 313 313 313 313 312 311 310 309 309 308 307 305 304 302 300 299 298 297 297 297 297 296 294 292 290 289 288 288 288 288 288 287 286 286 287 287 287 287 287 283 278 273 269 264 263 262 261 259 257 255 254 252 250 248 248 247 245 243 243 243 243 242 242 241 239 235 234 235
291 291 291 292 294 298 303 308 311 312 312 312 312 311 311 311 310 310 310 310 309 308 307 306 305 304 303 302 301 300 299 298 297 296 294 293 293 293 293 293 292 290 289 288 286 285 285 285 286 285 284 283 284 285 285 285 284 281 277 270 264 260 258 258 258 256 254 253 253 251 248 247 248 246 244 245 243 242 242 242 241 239 235 233 233
291 291 292 296 300 305 310 312 313 313 312 311 310 309 308 307 308 307 307 306 306 305 304 303 302 301 300 299 298 297 296 295 294 294 293 292 292 291 291 290 289 289 288 287 286 285 284 283 283 284 283 282 281 282 282 283 283 282 280 275 268 261 257 255 255 255 253 252 252 251 248 248 248 246 245 244 242 240 240 239 239 239 238 236 236
296 298 301 305 309 312 313 313 312 311 310 309 307 306 305 305 305 305 304 304 303 302 301 300 299 298 296 295 294 294 293 293 293 292 292 291 291 291 290 289 288 287 286 285 285 284 284 283 282 281 281 281 281 280 279 280 281 281 280 278 272 266 261 256 253 253 252 252 253 252 250 249 249 247 247 246 244 241 238 237 238 238 237 238 240
304 306 308 310 312 312 312 311 310 310 309 308 308 307 306 306 305 304 303 302 302 301 300 299 297 296 295 294 292 291 291 291 291 291 291 291 291 290 289 288 286 285 285 284 283 283 283 282 282 281 280 280 279 278 278 278 279 278 279 278 275 271 266 262 257 254 251 250 251 252 252 250 249 250 249 249 247 245 241 239 238 237 237 241 243
309 310 311 311 312 311 311 310 310 310 310 310 309 309 309 308 307 306 304 303 301 300 299 298 297 296 295 294 292 291 291 291 291 290 290 290 290 289 287 286 284 283 283 282 282 281 281 280 280 280 279 278 277 276 277 277 277 277 276 275 275 274 270 266 263 259 255 251 250 251 252 252 251 250 250 250 250 250 249 248 247 245 245 245 244
311 312 312 312 312 312 312 312 312 312 312 312 311 311 311 310 309 307 305 303 301 299 298 297 295 295 294 292 291 290 290 290 289 289 289 289 290 289 287 285 284 283 282 282 281 280 279 279 278 277 277 276 275 274 275 275 276 276 274 273 273 273 272 270 268 265 262 258 255 253 253 252 252 250 249 250 250 251 252 250 247 245 242 240 239
313 313 313 313 314 313 314 313 313 314 314 314 313 313 312 310 309 307 305 303 301 299 298 296 295 294 293 292 291 290 289 289 289 288 288 289 289 288 286 285 284 282 281 280 280 279 279 278 277 275 275 274 274 274 274 273 273 273 273 272 271 270 271 271 271 269 266 263 260 258 256 253 251 250 249 248 249 250 249 244 241 238 234 233 235
314 314 314 314 314 314 315 315 316 315 315 314 313 312 311 309 308 306 304 303 301 300 299 298 296 295 294 293 292 291 290 289 289 289 288 288 288 286 285 284 283 281 279 278 277 277 276 275 274 273 273 273 274 274 273 271 271 271 271 270 269 268 268 270 271 270 268 265 262 260 259 256 252 249 247 247 247 247 245 243 242 236 231 231 234
314 315 315 315 315 316 317 317 317 316 315 314 313 312 310 309 308 307 305 304 303 302 301 300 299 297 297 297 296 295 293 292 292 292 290 290 290 288 285 284 282 280 279 279 278 276 275 274 273 272 272 273 273 273 272 270 269 269 269 268 266 266 267 268 270 270 268 266 264 261 260 259 256 251 245 243 244 245 244 244 243 237 233 234 235
315 315 315 315 317 318 318 318 317 317 315 315 313 312 311 310 309 309 307 306 305 303 303 302 301 300 301 302 301 300 300 298 298 299 298 298 297 295 290 285 282 280 280 280 279 277 275 273 272 270 270 271 271 271 271 270 268 267 265 263 263 265 268 269 269 269 268 268 267 265 263 262 260 255 248 243 241 242 243 243 241 238 237 237 235
315 315 316 317 318 319 319 319 319 318 316 315 314 313 313 312 311 310 309 308 307 306 306 306 304 304 306 307 307 307 307 305 305 305 304 303 302 300 294 288 286 285 284 282 280 279 277 275 273 271 271 271 270 270 269 267 265 264 263 262 263 265 267 268 269 269 268 267 267 266 264 262 260 257 253 247 241 239 240 241 240 238 237 237 235
316 316 318 319 320 321 321 320 319 318 317 317 315 314 314 314 312 312 312 311 310 309 310 310 310 309 310 311 311 311 311 310 308 308 307 305 304 302 296 291 290 288 285 283 280 279 279 278 277 276 274 272 270 269 267 265 262 259 260 262 264 264 264 266 267 267 265 264 264 263 262 261 258 256 254 250 245 240 238 238 239 238 237 237 236
316 317 318 320 322 322 321 320 320 319 318 318 317 315 315 315 314 314 315 314 313 313 313 313 312 311 312 312 313 313 313 313 313 313 310 307 304 302 299 296 294 290 286 282 281 280 280 278 277 276 275 273 271 269 267 264 261 259 257 258 261 263 263 264 264 263 261 260 259 259 260 259 257 255 253 251 248 244 239 237 238 238 238 238 237
317 318 320 322 323 322 321 321 320 320 321 321 318 316 316 316 316 317 317 317 315 314 314 314 313 312 312 313 314 315 317 317 317 317 314 310 305 302 299 297 295 292 287 283 281 280 279 278 277 276 274 272 270 270 269 265 262 259 256 255 257 257 258 259 259 257 256 255 254 254 257 258 257 256 255 253 251 248 243 239 237 237 237 237 237
317 319 321 322 322 322 321 321 322 323 324 322 319 317 319 320 319 319 319 318 316 315 315 315 315 313 313 314 315 317 319 319 318 319 319 316 311 307 305 301 298 294 290 288 285 281 278 279 281 280 277 272 269 269 270 268 264 260 256 253 252 253 253 254 254 252 250 249 249 251 254 257 257 258 258 255 252 250 247 242 238 236 236 236 235
318 320 321 321 322 323 322 323 325 326 325 322 320 322 324 323 321 321 320 318 317 316 317 317 317 316 315 315 315 316 318 318 317 318 318 316 314 314 313 310 306 301 297 297 296 291 285 281 281 281 280 278 275 273 271 268 265 262 258 252 249 251 251 250 248 247 246 246 246 249 253 257 258 258 256 253 250 249 248 244 240 237 235 235 234
317 319 321 321 323 324 324 326 327 326 324 325 327 328 327 324 321 321 321 320 320 320 319 319 317 316 316 315 315 315 315 315 315 315 315 313 313 313 313 310 309 308 304 302 302 300 296 290 285 282 280 280 280 279 277 272 264 260 258 255 252 251 250 247 245 244 244 244 246 249 253 255 256 255 254 251 249 248 247 245 242 239 236 234 233
317 319 321 323 324 325 327 328 328 326 327 330 332 330 328 325 323 323 325 325 322 319 318 317 315 314 314 313 313 313 312 311 311 311 311 310 310 310 310 308 307 306 304 303 301 299 298 296 292 289 285 283 283 282 283 283 273 260 255 254 252 249 246 244 244 244 243 244 245 247 249 251 251 252 252 250 249 248 246 244 242 240 237 234 231
317 320 322 324 326 327 329 329 328 328 330 332 332 331 330 328 325 323 326 328 323 315 311 310 309 310 310 310 310 310 309 309 309 308 307 306 306 305 304 303 302 300 299 299 298 296 294 292 291 290 288 286 287 286 285 287 285 271 256 250 247 245 243 243 244 242 242 242 243 243 244 246 248 249 249 248 248 247 244 242 240 238 236 233 230
318 321 324 327 328 330 330 330 330 330 332 333 332 331 332 332 328 323 324 328 325 315 306 304 306 308 308 307 307 307 306 306 307 307 305 304 303 302 300 299 299 298 297 296 294 292 291 290 289 288 287 286 287 287 285 285 287 283 269 255 249 247 246 246 244 241 240 239 239 240 240 242 245 246 246 246 245 243 242 241 239 236 235 232 228
319 323 327 329 330 331 330 330 331 333 334 334 332 330 331 333 334 330 327 328 328 323 315 309 309 310 310 309 310 308 306 306 307 307 308 308 305 303 302 300 299 298 297 296 294 292 292 291 289 288 288 287 286 285 285 284 284 284 279 268 255 249 246 245 243 241 239 237 237 237 238 240 243 244 244 244 243 240 238 237 234 233 234 232 227
321 325 329 331 331 331 330 331 333 334 335 335 333 331 329 330 333 335 335 332 330 330 328 324 320 318 316 315 314 312 311 310 308 308 310 310 307 304 303 302 301 301 300 299 298 298 297 293 289 288 287 286 284 283 283 283 282 280 280 276 265 253 246 243 242 241 240 238 236 236 237 239 242 243 243 242 240 237 235 232 230 230 231 229 225
323 328 331 332 331 331 331 333 335 335 335 334 333 332 331 330 330 331 334 336 335 333 332 332 331 329 325 322 319 318 316 314 311 311 311 310 308 306 306 305 304 303 302 300 299 299 298 295 291 289 286 285 283 281 278 278 279 279 278 277 272 261 251 246 244 243 242 240 238 237 238 240 241 241 241 239 237 235 233 231 229 227 226 224 221
325 329 332 332 331 331 333 334 335 336 336 335 334 334 333 332 329 328 329 331 334 335 337 337 336 335 333 332 329 325 322 319 316 316 315 312 311 310 309 307 305 301 299 299 298 298 299 298 295 291 289 286 284 281 276 272 273 275 276 275 272 266 258 251 247 245 244 242 240 238 239 240 240 240 238 236 234 232 230 229 227 225 224 222 219
326 329 332 333 332 332 333 334 336 338 338 337 336 335 334 333 331 329 327 326 326 328 332 334 335 336 337 337 335 332 329 325 322 320 319 318 319 317 314 313 312 311 309 309 308 306 305 302 299 296 294 290 285 280 275 269 265 266 269 270 268 266 261 254 250 248 245 242 241 240 240 241 241 240 238 235 232 230 229 228 227 225 223 221 218
326 330 334 335 334 333 333 335 338 340 338 338 337 337 335 334 332 330 328 326 324 324 325 328 331 334 336 338 338 335 332 328 323 323 324 325 324 322 320 318 319 319 317 315 313 311 309 306 304 302 299 295 289 281 275 268 261 259 260 261 261 262 260 253 249 249 246 243 242 241 241 242 242 240 236 234 234 233 232 231 229 226 224 222 219
327 332 336 336 335 334 334 336 340 341 339 338 338 338 337 335 333 331 329 328 326 325 325 326 329 331 335 339 341 338 332 328 326 327 328 328 326 325 325 323 321 319 317 315 314 313 311 309 306 303 300 296 291 284 276 270 263 258 257 255 254 254 253 248 245 246 247 246 244 242 241 242 242 240 237 234 233 232 230 228 227 225 223 221 219
329 335 339 338 335 334 335 338 342 342 340 340 340 340 337 335 334 332 331 329 328 327 327 328 328 329 331 336 341 342 339 336 333 331 329 329 330 330 330 328 324 320 318 317 316 314 310 307 305 302 300 297 293 287 279 271 263 260 258 255 251 247 245 245 246 249 251 249 245 242 241 241 241 239 237 235 232 230 228 226 225 223 220 218 217
331 337 340 338 336 335 337 342 344 343 342 343 343 341 338 335 334 333 331 330 330 329 329 330 329 330 331 335 340 343 340 333 328 326 327 330 333 333 330 328 325 322 320 320 319 317 315 313 310 307 304 299 294 288 281 271 262 259 258 255 251 246 241 239 242 248 250 247 244 241 240 240 239 237 235 233 232 230 229 227 226 224 222 220 219
333 338 340 339 338 339 342 346 346 345 345 345 344 341 337 335 334 333 331 331 331 331 331 331 330 332 335 337 339 337 331 325 324 327 331 335 335 332 331 330 328 326 327 327 329 331 330 327 323 320 315 307 297 291 286 275 263 258 257 257 252 245 237 234 237 244 246 244 242 240 239 238 236 234 232 231 231 231 231 229 228 227 225 223 222
336 339 340 341 342 344 348 349 348 347 347 345 342 340 337 335 334 332 331 332 332 332 333 332 332 334 338 340 339 334 328 328 333 337 340 341 339 337 338 338 336 335 334 334 336 339 339 338 339 338 332 321 308 298 293 282 270 265 265 260 250 239 233 232 238 242 241 240 241 240 238 236 234 233 232 230 230 229 229 228 226 225 223 221 219
338 340 341 343 347 350 352 351 349 349 349 346 343 340 337 336 334 333 333 335 336 336 336 336 337 340 343 344 343 339 337 338 342 343 344 345 346 346 346 344 342 340 338 338 340 342 342 345 351 351 343 332 321 307 294 286 283 278 268 254 239 228 227 233 238 239 239 240 240 240 237 235 235 233 231 229 227 226 225 223 222 221 220 218 216
340 341 343 347 351 354 354 352 351 352 350 347 344 341 338 336 336 337 339 341 344 344 344 344 344 347 350 352 351 349 348 349 349 349 350 351 352 351 350 347 344 343 342 342 342 342 343 349 356 358 354 348 342 328 303 289 284 275 257 241 235 236 239 239 235 234 238 240 240 238 236 234 232 229 227 225 224 223 221 220 219 218 217 216 214
340 342 346 351 354 357 356 355 354 353 351 348 345 343 342 342 345 349 351 353 355 356 356 355 356 358 2 5 5 4 2 1 358 357 357 356 354 354 353 349 346 345 346 348 348 347 347 350 355 359 0 359 354 346 327 297 276 261 249 247 250 250 246 240 235 235 239 240 238 235 233 231 229 227 224 223 222 221 219 218 216 215 214 212 210
342 344 349 354 357 358 358 358 357 354 351 350 350 351 353 355 359 3 5 7 10 12 11 11 13 15 17 19 20 19 17 15 12 9 5 3 1 0 359 356 352 350 350 353 353 351 351 353 356 1 6 7 3 356 344 324 300 280 269 264 261 259 258 254 249 245 244 243 239 236 233 230 228 226 224 222 221 220 218 217 215 213 211 210 209
344 347 351 355 358 360 359 359 358 356 355 357 359 3 7 11 14 18 21 23 24 25 25 25 27 27 28 29 30 29 29 27 25 22 19 16 14 12 10 8 5 2 360 359 357 356 357 0 3 6 8 9 12 11 5 355 341 325 308 295 287 287 285 275 263 252 248 243 239 236 234 230 227 225 223 221 219 217 215 214 213 211 210 209 208
345 349 352 355 358 360 360 359 359 0 3 7 10 14 19 24 27 30 32 33 34 34 33 32 32 33 33 34 33 34 34 33 32 31 29 27 25 24 23 22 21 18 15 12 8 7 9 11 14 15 13 11 13 16 17 14 11 5 360 352 340 328 317 299 280 264 254 248 243 239 236 231 225 221 218 216 214 212 210 209 208 207 206 206 203
345 348 353 356 357 359 359 360 2 6 10 15 19 23 27 30 32 34 36 36 37 36 36 35 34 34 35 35 34 34 35 35 34 34 34 33 32 31 31 30 30 30 29 28 26 24 24 23 22 21 21 21 23 25 26 27 29 29 27 24 17 13 11 357 327 297 273 260 249 240 234 229 223 217 213 210 209 207 204 203 201 200 200 199 196
344 346 351 355 357 359 1 2 4 9 14 18 22 25 28 30 32 34 35 36 36 36 35 34 34 33 33 34 34 34 35 35 34 35 35 34 35 35 34 34 34 34 35 35 35 37 39 39 36 34 32 31 31 32 33 35 38 41 45 49 53 58 66 66 55 33 344 267 240 228 223 219 213 207 202 201 201 200 198 196 195 194 194 191 188
342 344 349 353 357 360 3 5 7 11 15 19 21 23 25 28 29 31 32 33 33 33 33 33 32 31 31 31 32 33 33 34 34 34 34 34 35 35 36 36 36 36 37 37 38 40 44 48 49 50 49 48 47 46 46 45 45 46 48 54 61 68 74 77 75 71 76 129 195 207 208 205 199 194 191 191 191 191 190 190 189 189 188 186 184
338 342 346 350 354 359 3 6 9 13 16 19 20 20 21 24 26 27 29 29 30 30 30 30 30 30 30 30 30 31 32 33 33 34 34 34 34 35 35 36 37 38 38 39 40 42 44 46 49 52 54 56 56 56 56 55 55 56 57 59 63 66 68 71 73 74 79 97 138 172 185 187 185 182 180 180 182 183 183 184 184 182 181 180 180